Chattanooga Airport (CHA)

 

Airport Diagram
Current Weather/Forecast (VFR Conditions)
METAR KCHA 260253Z 17013G18KT 10SM SCT036 SCT080 BKN180 26/19 A3008 RMK AO2 SLP177 T02560189 53024
TAF KCHA 252320Z 2600/2624 14004KT P6SM SCT150 FM261600 14006KT P6SM SCT040 BKN150 FM261900 11008KT P6SM VCTS SCT050CB BKN150

All Charts
General
Chart Name Download
AIRPORT DIAGRAM
TAKEOFF MINIMUMS
ALTERNATE MINIMUMS

Departures
Chart Name Download
CHATTANOOGA SIX

Approaches
Chart Name Download
ILS OR LOC RWY 02
ILS OR LOC RWY 20
ILS RWY 20 (CAT II)
RNAV (GPS) RWY 02
RNAV (GPS) RWY 15
RNAV (GPS) RWY 20
RNAV (GPS) RWY 33
VOR RWY 33


Inbound Traffic (Arrivals)

No inbound traffic.


Outbound Traffic (Departures)

No outbound traffic.